Location: Chandrammap?lem
(16.9200°N, 81.0051°E)
Time: 05:05:40
(UTC+00:00)

CZ-4 R/B - Pass Details

Date: 29 May 2024
Orbit: 516 x 570 km, 97.6° (Epoch: 19 June)

Event Time Altitude Azimuth Distance (km) Brightness Sun altitude
Exits shadow 13:45:01 12° 126° (SE) 1,599 3.0 -9.5°
Maximum altitude 13:47:38 24° 76° (ENE) 1,109 2.5 -10.1°
Drops below altitude 10° 13:50:43 10° 21° (NNE) 1,763 4.0 -10.7°
Sets 13:53:07 0° 7° (N) 2,662 5.1 -11.2°
